TJS-4

Last updated on Wed Jul 09 2025 00:02:47 GMT+0000 (Coordinated Universal Time)

1 44637U 19070A 25189.58229477 -.00000155 00000+0 00000+0 0 9990 2 44637 0.0377 110.3739 0003443 301.0763 168.4877 1.00273194 21024
UTC large
Height (km)
Speed (km/s)
/
Latitude / Longitude
Inclination (degrees)
Orbital Period (minutes)
Azimuth
Elevation
Range (km)
Doppler Factor

Next 0 passes for location: London (51.5072 / 0.1276)

Sorry there are no passes over London.